| time (UTC) | temp F | wind direction | speed MPH | gust MPH | rain 1hr in | rain 24hr in | rain mn in | humidity % | barometer mb |
| 20260507115556 | 65 | 44 | 0.0 | 0.0 | 0.00 | 0.16 | 0.00 | 59 | 1014.6 |
| 20260507115103 | 65 | 69 | 0.0 | 0.0 | 0.00 | 0.16 | 0.00 | 61 | 1014.6 |
| 20260507114655 | 64 | 59 | 0.0 | 0.0 | 0.00 | 0.03 | 0.00 | 64 | 1014.6 |
| 20260507114555 | 64 | 57 | 0.0 | 0.0 | 0.00 | 0.16 | 0.00 | 63 | 1014.6 |
| 20260507114043 | 64 | 57 | 0.0 | 0.0 | 0.00 | 0.16 | 0.00 | 58 | 1014.6 |
| 20260507113553 | 64 | 34 | 0.0 | 0.0 | 0.00 | 0.16 | 0.00 | 60 | 1014.6 |
| 20260507113109 | 64 | 26 | 0.0 | 0.0 | 0.00 | 0.16 | 0.00 | 61 | 1014.7 |
| 20260507113005 | 64 | 25 | 0.0 | 0.0 | 0.00 | 0.03 | 0.00 | 62 | 1014.6 |
| 20260507111503 | 65 | 26 | 0.0 | 0.0 | 0.00 | 0.03 | 0.00 | 60 | 1014.6 |
| 20260507104555 | 63 | 49 | 0.0 | 0.0 | 0.00 | 0.09 | 0.00 | 66 | 1014.7 |
| 20260507103056 | 63 | 48 | 0.0 | 0.0 | 0.00 | 0.09 | 0.00 | 65 | 1014.7 |
| 20260507101551 | 63 | 49 | 0.0 | 0.0 | 0.00 | 0.09 | 0.00 | 72 | 1014.8 |
| 20260507100051 | 62 | 23 | 0.0 | 0.0 | 0.00 | 0.15 | 0.00 | 75 | 1014.5 |
| 20260507094556 | 62 | 5 | 0.0 | 0.0 | 0.00 | 0.15 | 0.00 | 78 | 1014.6 |
| 20260507093041 | 60 | 26 | 0.0 | 0.0 | 0.00 | 0.15 | 0.00 | 82 | 1014.5 |
| 20260507091538 | 60 | 348 | 0.0 | 0.0 | 0.00 | 0.15 | 0.00 | 88 | 1014.4 |
| 20260507090034 | 58 | 41 | 0.0 | 0.0 | 0.00 | 0.17 | 0.00 | 93 | 1014.4 |
| 20260507084533 | 57 | 355 | 0.0 | 0.0 | 0.00 | 0.17 | 0.00 | 96 | 1014.4 |
| 20260507083027 | 56 | 44 | 0.0 | 0.0 | 0.00 | 0.17 | 0.00 | 97 | 1014.3 |
| 20260507081526 | 54 | 360 | 0.0 | 0.0 | 0.00 | 0.17 | 0.00 | 97 | 1014.2 |
| 20260507080019 | 52 | 360 | 0.0 | 0.0 | 0.00 | 0.18 | 0.00 | 97 | 1014.2 |
| 20260507074517 | 51 | 319 | 0.0 | 0.0 | 0.00 | 0.18 | 0.00 | 97 | 1014.1 |
| 20260507073013 | 50 | 355 | 0.0 | 0.0 | 0.00 | 0.18 | 0.00 | 97 | 1014.0 |
| 20260507071514 | 50 | 355 | 0.0 | 0.0 | 0.00 | 0.18 | 0.00 | 97 | 1013.9 |
| 20260507070018 | 50 | 20 | 0.0 | 0.0 | 0.00 | 0.21 | 0.00 | 97 | 1013.9 |
| 20260507064513 | 49 | 28 | 0.0 | 0.0 | 0.00 | 0.21 | 0.00 | 97 | 1013.9 |
| 20260507063007 | 49 | 28 | 0.0 | 0.0 | 0.00 | 0.21 | 0.00 | 97 | 1013.7 |
| 20260507061503 | 49 | 28 | 0.0 | 0.0 | 0.00 | 0.21 | 0.00 | 97 | 1013.4 |
| 20260507054559 | 48 | 29 | 0.0 | 0.0 | 0.00 | 0.25 | 0.00 | 97 | 1013.3 |
| 20260507053124 | 48 | 23 | 0.0 | 0.0 | 0.00 | 0.25 | 0.00 | 97 | 1013.0 |
| 20260507051556 | 48 | 23 | 0.0 | 0.0 | 0.00 | 0.25 | 0.00 | 97 | 1012.9 |
| 20260507050054 | 48 | 23 | 0.0 | 0.0 | 0.00 | 0.28 | 0.00 | 96 | 1012.6 |
| 20260507044606 | 48 | 23 | 0.0 | 0.0 | 0.00 | 0.28 | 0.00 | 96 | 1012.5 |
| 20260507043051 | 48 | 23 | 0.0 | 0.0 | 0.00 | 0.28 | 0.00 | 96 | 1012.3 |
| 20260507041551 | 48 | 23 | 0.0 | 0.0 | 0.00 | 0.28 | 0.00 | 96 | 1012.2 |
| 20260507040049 | 48 | 23 | 0.0 | 0.0 | 0.00 | 0.33 | 0.00 | 96 | 1012.1 |
| 20260507034548 | 48 | 25 | 0.0 | 0.0 | 0.00 | 0.33 | 0.00 | 97 | 1012.0 |
| 20260507033100 | 48 | 25 | 0.0 | 0.0 | 0.00 | 0.33 | 0.00 | 97 | 1012.0 |
| 20260507031557 | 48 | 25 | 0.0 | 0.0 | 0.00 | 0.33 | 0.00 | 97 | 1012.0 |
| 20260507024603 | 48 | 25 | 0.0 | 0.0 | 0.00 | 0.38 | 0.00 | 96 | 1011.9 |
| 20260507023043 | 47 | 25 | 0.0 | 0.0 | 0.00 | 0.38 | 0.00 | 96 | 1011.8 |
| 20260507021550 | 47 | 25 | 0.0 | 0.0 | 0.00 | 0.38 | 0.00 | 96 | 1011.7 |
| 20260507020053 | 47 | 25 | 0.0 | 0.0 | 0.00 | 0.43 | 0.00 | 96 | 1011.7 |
| 20260507014551 | 47 | 25 | 0.0 | 0.0 | 0.00 | 0.43 | 0.00 | 96 | 1011.5 |
| 20260507013042 | 47 | 25 | 0.0 | 0.0 | 0.00 | 0.43 | 0.00 | 96 | 1011.5 |
| 20260507011545 | 47 | 25 | 0.0 | 0.0 | 0.00 | 0.43 | 0.00 | 96 | 1011.4 |
| 20260507010043 | 47 | 25 | 0.0 | 0.0 | 0.00 | 0.48 | 0.00 | 96 | 1011.3 |
| 20260507004536 | 47 | 25 | 0.0 | 0.0 | 0.00 | 0.48 | 0.00 | 96 | 1011.4 |
| 20260507003035 | 47 | 25 | 0.0 | 0.0 | 0.00 | 0.48 | 0.00 | 96 | 1011.2 |
| 20260507001535 | 47 | 25 | 0.0 | 0.0 | 0.00 | 0.48 | 0.00 | 96 | 1011.0 |
| 20260507000035 | 48 | 25 | 0.0 | 0.0 | 0.00 | 0.50 | 0.00 | 96 | 1011.0 |
| 20260506234538 | 48 | 25 | 0.0 | 0.0 | 0.00 | 0.50 | 0.00 | 96 | 1011.0 |
| 20260506233032 | 48 | 25 | 0.0 | 0.0 | 0.00 | 0.50 | 0.00 | 96 | 1010.9 |
| 20260506231534 | 48 | 25 | 0.0 | 0.0 | 0.00 | 0.50 | 0.00 | 96 | 1011.0 |
| 20260506230029 | 48 | 25 | 0.0 | 0.0 | 0.00 | 0.53 | 0.00 | 96 | 1010.8 |
| 20260506224529 | 48 | 25 | 0.0 | 0.0 | 0.00 | 0.53 | 0.00 | 96 | 1010.7 |
| 20260506223027 | 48 | 25 | 0.0 | 0.0 | 0.00 | 0.53 | 0.00 | 96 | 1010.6 |
| 20260506221526 | 48 | 25 | 0.0 | 0.0 | 0.00 | 0.53 | 0.00 | 96 | 1010.6 |
| 20260506220024 | 48 | 25 | 0.0 | 0.0 | 0.00 | 0.54 | 0.53 | 96 | 1010.6 |
| 20260506214525 | 48 | 25 | 0.0 | 0.0 | 0.00 | 0.54 | 0.53 | 96 | 1010.5 |
| 20260506213022 | 48 | 25 | 0.0 | 0.0 | 0.00 | 0.54 | 0.53 | 96 | 1010.4 |
| 20260506211523 | 48 | 25 | 0.0 | 0.0 | 0.00 | 0.54 | 0.53 | 96 | 1010.3 |
| 20260506210019 | 48 | 25 | 0.0 | 0.0 | 0.00 | 0.54 | 0.53 | 96 | 1010.1 |
| 20260506204518 | 49 | 25 | 0.0 | 0.0 | 0.00 | 0.54 | 0.53 | 96 | 1010.1 |
| 20260506203016 | 49 | 26 | 0.0 | 0.0 | 0.00 | 0.54 | 0.53 | 96 | 1010.1 |
| 20260506201518 | 49 | 26 | 0.0 | 0.0 | 0.00 | 0.54 | 0.53 | 96 | 1009.8 |
| 20260506200012 | 49 | 24 | 0.0 | 0.0 | 0.00 | 0.54 | 0.53 | 96 | 1009.7 |
| 20260506194513 | 49 | 20 | 0.0 | 0.0 | 0.01 | 0.54 | 0.53 | 96 | 1009.6 |
| 20260506193013 | 49 | 20 | 0.0 | 0.0 | 0.01 | 0.54 | 0.53 | 96 | 1009.6 |
| 20260506191509 | 49 | 26 | 0.0 | 0.0 | 0.01 | 0.54 | 0.53 | 96 | 1009.4 |
| 20260506190008 | 49 | 24 | 0.0 | 0.0 | 0.01 | 0.54 | 0.53 | 96 | 1009.3 |
| 20260506184508 | 49 | 23 | 0.0 | 0.0 | 0.01 | 0.54 | 0.52 | 96 | 1009.1 |
| 20260506183008 | 49 | 23 | 0.0 | 0.0 | 0.01 | 0.54 | 0.52 | 96 | 1009.0 |
| 20260506181504 | 49 | 23 | 0.0 | 0.0 | 0.01 | 0.54 | 0.52 | 96 | 1009.0 |
| 20260506180002 | 49 | 23 | 0.0 | 0.0 | 0.00 | 0.53 | 0.51 | 96 | 1008.7 |
| 20260506174600 | 49 | 23 | 0.0 | 0.0 | 0.01 | 0.53 | 0.51 | 96 | 1008.5 |
| 20260506173558 | 50 | 23 | 0.0 | 0.0 | 0.04 | 2.64 | 0.51 | 96 | 1008.4 |
| 20260506173147 | 49 | 23 | 0.0 | 0.0 | 0.01 | 0.53 | 0.51 | 96 | 1008.4 |
| 20260506173044 | 50 | 23 | 0.0 | 0.0 | 0.04 | 2.64 | 0.51 | 96 | 1008.4 |
| 20260506172556 | 50 | 23 | 0.0 | 0.0 | 0.04 | 2.64 | 0.51 | 96 | 1008.3 |
| 20260506172044 | 50 | 23 | 0.0 | 0.0 | 0.04 | 2.64 | 0.51 | 96 | 1008.2 |
| 20260506171617 | 50 | 23 | 0.0 | 0.0 | 0.04 | 2.64 | 0.51 | 96 | 1008.3 |
| 20260506171039 | 50 | 23 | 0.0 | 0.0 | 0.04 | 2.64 | 0.51 | 96 | 1008.2 |
| 20260506170550 | 50 | 23 | 0.0 | 0.0 | 0.04 | 2.64 | 0.51 | 96 | 1008.2 |
| 20260506170141 | 49 | 23 | 0.0 | 0.0 | 0.01 | 0.53 | 0.51 | 96 | 1008.2 |
| 20260506170037 | 50 | 23 | 0.0 | 0.0 | 0.04 | 2.64 | 0.51 | 96 | 1008.3 |
| 20260506165550 | 50 | 23 | 0.0 | 0.0 | 0.04 | 2.64 | 0.51 | 96 | 1008.2 |
| 20260506165039 | 50 | 22 | 0.0 | 0.0 | 0.04 | 2.64 | 0.51 | 96 | 1008.2 |
| 20260506164550 | 50 | 22 | 0.0 | 0.0 | 0.00 | 2.60 | 0.50 | 96 | 1008.1 |
| 20260506164057 | 50 | 21 | 0.0 | 0.0 | 0.00 | 2.60 | 0.50 | 96 | 1008.1 |
| 20260506163550 | 50 | 21 | 0.0 | 0.0 | 0.00 | 2.60 | 0.50 | 96 | 1008.1 |
| 20260506163057 | 50 | 31 | 0.0 | 0.0 | 0.00 | 2.60 | 0.50 | 96 | 1008.1 |
| 20260506163021 | 50 | 31 | 0.0 | 0.0 | 0.00 | 0.52 | 0.50 | 96 | 1008.1 |
| 20260506162610 | 50 | 31 | 0.0 | 0.0 | 0.00 | 2.60 | 0.50 | 96 | 1008.1 |
| 20260506162057 | 50 | 31 | 0.0 | 0.0 | 0.00 | 2.60 | 0.50 | 96 | 1008.1 |
| 20260506161652 | 50 | 31 | 0.0 | 0.0 | 0.00 | 0.52 | 0.50 | 96 | 1008.1 |
| 20260506161551 | 50 | 30 | 0.0 | 0.0 | 0.00 | 2.60 | 0.50 | 96 | 1008.0 |
| 20260506161039 | 50 | 30 | 0.0 | 0.0 | 0.00 | 2.60 | 0.50 | 96 | 1008.0 |
| 20260506160611 | 50 | 21 | 0.0 | 0.0 | 0.00 | 2.60 | 0.50 | 96 | 1007.9 |
| 20260506160158 | 50 | 71 | 0.0 | 0.0 | 0.00 | 0.52 | 0.50 | 96 | 1007.8 |
| 20260506160055 | 50 | 71 | 0.0 | 0.0 | 0.00 | 2.60 | 0.50 | 96 | 1007.8 |
| 20260506155548 | 50 | 71 | 0.0 | 0.0 | 0.00 | 2.60 | 0.50 | 96 | 1007.8 |
| 20260506155054 | 50 | 73 | 0.0 | 0.0 | 0.00 | 2.60 | 0.50 | 96 | 1007.8 |
| 20260506154649 | 50 | 138 | 0.0 | 0.0 | 0.00 | 0.52 | 0.50 | 96 | 1007.9 |
| 20260506154547 | 50 | 139 | 0.0 | 0.0 | 0.00 | 2.60 | 0.50 | 96 | 1007.8 |
| 20260506154054 | 50 | 150 | 0.0 | 0.0 | 0.00 | 2.60 | 0.50 | 96 | 1007.8 |
| 20260506153547 | 50 | 150 | 0.0 | 0.0 | 0.00 | 2.60 | 0.50 | 96 | 1007.8 |
| 20260506153051 | 50 | 150 | 0.0 | 0.0 | 0.00 | 2.60 | 0.50 | 96 | 1007.8 |
| 20260506152544 | 50 | 142 | 0.0 | 0.0 | 0.00 | 2.60 | 0.50 | 96 | 1007.8 |
| 20260506152112 | 50 | 137 | 0.0 | 0.0 | 0.00 | 2.60 | 0.50 | 96 | 1007.8 |
| 20260506151644 | 50 | 137 | 0.0 | 0.0 | 0.00 | 0.52 | 0.50 | 96 | 1007.8 |
| 20260506151543 | 50 | 137 | 0.0 | 0.0 | 0.00 | 2.60 | 0.50 | 96 | 1007.8 |
| 20260506151052 | 50 | 137 | 0.0 | 0.0 | 0.00 | 2.60 | 0.50 | 96 | 1007.7 |
| 20260506150545 | 50 | 137 | 0.0 | 0.0 | 0.00 | 2.60 | 0.50 | 96 | 1007.7 |
| 20260506150152 | 50 | 137 | 0.0 | 0.0 | 0.00 | 0.52 | 0.50 | 96 | 1007.7 |
| 20260506150050 | 51 | 137 | 0.0 | 0.0 | 0.00 | 2.60 | 0.50 | 96 | 1007.7 |
| 20260506145544 | 51 | 137 | 0.0 | 0.0 | 0.00 | 2.60 | 0.50 | 96 | 1007.6 |
| 20260506145052 | 51 | 132 | 0.0 | 0.0 | 0.00 | 2.60 | 0.50 | 96 | 1007.6 |
| 20260506144606 | 51 | 134 | 0.0 | 0.0 | 0.00 | 2.60 | 0.50 | 96 | 1007.6 |
| 20260506144053 | 52 | 126 | 0.0 | 0.0 | 0.00 | 2.60 | 0.50 | 96 | 1007.6 |
| 20260506143606 | 52 | 113 | 0.0 | 0.0 | 0.00 | 2.60 | 0.50 | 96 | 1007.5 |
| 20260506143053 | 52 | 124 | 0.0 | 0.0 | 0.00 | 2.60 | 0.50 | 97 | 1007.5 |
| 20260506143006 | 51 | 124 | 0.0 | 0.0 | 0.00 | 0.52 | 0.50 | 97 | 1007.6 |
| 20260506142606 | 51 | 124 | 0.0 | 0.0 | 0.00 | 2.60 | 0.50 | 97 | 1007.5 |
| 20260506142048 | 51 | 117 | 0.0 | 0.0 | 0.00 | 2.60 | 0.50 | 96 | 1007.5 |
| 20260506141600 | 51 | 117 | 0.0 | 0.0 | 0.00 | 2.60 | 0.50 | 96 | 1007.5 |
| 20260506141047 | 51 | 113 | 0.0 | 0.0 | 0.00 | 2.60 | 0.50 | 96 | 1007.5 |
| 20260506140620 | 51 | 112 | 0.0 | 0.0 | 0.00 | 2.60 | 0.50 | 96 | 1007.5 |
| 20260506140146 | 50 | 112 | 0.0 | 0.0 | 0.00 | 0.52 | 0.50 | 96 | 1007.6 |
| 20260506140045 | 51 | 112 | 0.0 | 0.0 | 0.00 | 2.60 | 0.50 | 96 | 1007.5 |
| 20260506135557 | 51 | 112 | 0.0 | 0.0 | 0.00 | 2.60 | 0.50 | 96 | 1007.5 |
| 20260506135103 | 51 | 112 | 0.0 | 0.0 | 0.00 | 2.60 | 0.50 | 96 | 1007.5 |
| 20260506134656 | 51 | 112 | 0.0 | 0.0 | 0.00 | 0.52 | 0.50 | 96 | 1007.6 |
| 20260506134555 | 51 | 111 | 0.0 | 0.0 | 0.00 | 2.60 | 0.50 | 96 | 1007.6 |
| 20260506134044 | 51 | 110 | 0.0 | 0.0 | 0.00 | 2.60 | 0.50 | 96 | 1007.6 |
| 20260506133555 | 51 | 108 | 0.0 | 0.0 | 0.00 | 2.60 | 0.50 | 96 | 1007.5 |
| 20260506133143 | 50 | 68 | 0.0 | 0.0 | 0.00 | 0.52 | 0.50 | 96 | 1007.5 |
| 20260506133043 | 51 | 68 | 0.0 | 0.0 | 0.00 | 2.60 | 0.50 | 96 | 1007.5 |
| 20260506132556 | 51 | 67 | 0.0 | 0.0 | 0.00 | 2.60 | 0.50 | 96 | 1007.5 |
| 20260506132043 | 51 | 67 | 0.0 | 0.0 | 0.00 | 2.60 | 0.50 | 96 | 1007.5 |
| 20260506131554 | 51 | 86 | 0.0 | 0.0 | 0.00 | 2.60 | 0.50 | 96 | 1007.4 |
| 20260506131041 | 51 | 92 | 0.0 | 0.0 | 0.04 | 2.60 | 0.50 | 96 | 1007.4 |
| 20260506130554 | 51 | 86 | 0.0 | 0.0 | 0.04 | 2.60 | 0.50 | 96 | 1007.3 |
| 20260506130101 | 51 | 86 | 0.0 | 0.0 | 0.04 | 2.60 | 0.50 | 96 | 1007.3 |
| 20260506130019 | 51 | 86 | 0.0 | 0.0 | 0.01 | 0.52 | 0.50 | 96 | 1007.3 |
| 20260506125556 | 51 | 86 | 0.0 | 0.0 | 0.04 | 2.60 | 0.50 | 97 | 1007.3 |
| 20260506124541 | 50 | 85 | 0.0 | 0.0 | 0.01 | 0.52 | 0.50 | 96 | 1007.2 |
| 20260506123040 | 51 | 91 | 0.0 | 0.0 | 0.01 | 0.52 | 0.50 | 97 | 1007.2 |
| 20260506121537 | 51 | 33 | 0.0 | 0.0 | 0.01 | 0.52 | 0.50 | 97 | 1007.1 |
| 20260506120036 | 51 | 71 | 0.0 | 0.0 | 0.00 | 0.51 | 0.50 | 97 | 1006.9 |